Voltar ao catálogo

STARLINK-37493

AtivoComunicaçõesSSO
NORAD 68910·PAYLOAD·🇺🇸 United States

Lançado Apr 30, 2026 de Vandenberg Space Force Base

Loading…

Próximas Passagens (próximas 24 horas)

TLE

AtualizadoSource: CelesTrak SupGP

Época: Sep 14, 2026, 23:00 UTC

1 68910C 26097R   26257.95881944  .00077642  00000+0  24104-2 0  2573
2 68910  97.2852  92.1588 0001669  95.0836 179.6653 15.33396619    19

Acompanhe STARLINK-37493 em tempo real com AllMySat

Download on the App Store